User: anonymous   Login
Location: Unspecified
(0.0000°N, 0.0000°E)
Time: 06:00:29
(UTC+00:00)
Language:

OPTUS D3 - Orbit

View from above orbital plane
View from above orbital plane
View from above satellite
View from above satellite

Ground track
Ground track

The orbit data is extracted from the following two-line orbital elements,

1 35756U 09044B   15241.65212856 -.00000170  00000-0  00000+0 0  9999
2 35756 000.0490 324.0839 0003420 203.7179 200.5055 01.00270981 22085
Epoch (UTC): 29 August 2015 15:39:03
Eccentricity: 0.0003420
inclination: 0.0490°
perigee height: 35772 km
apogee height: 35801 km
right ascension of ascending node: 324.0839°
argument of perigee: 203.7179°
revolutions per day: 1.00270981
mean anomaly at epoch: 200.5055°
orbit number at epoch: 2208

The dashed part of the orbit path shows where the satellite is in the earth's shadow,  

DLR